Temp
9 9 9 10 10 10 10 10 11 11 11 12 12 12 12 12 12 12 12 12 12 12 12 12 13 13 13 12 12 12 12 12 12 12 12 12 12 12 12 12 12 12 12 12 13 13 13 13 13 13 13 13 13 13 13 13 13 13 13 13 13 13 13 13 13 13 13 12 12 12 12 12 11 11 12 12 11 11 11 11 11 12 12 12 12
9 9 9 9 9 9 10 10 10 11 11 11 12 12 12 12 12 12 12 12 12 12 12 12 13 13 13 13 12 12 12 12 12 12 12 12 12 13 12 12 12 12 12 13 13 13 12 12 12 12 12 13 13 13 13 13 13 13 13 13 13 13 13 12 13 13 13 12 12 12 12 12 11 11 12 12 11 11 12 12 11 12 12 12 12
9 9 9 9 9 9 9 10 10 11 11 11 12 12 11 12 12 12 12 12 12 12 12 12 13 13 13 13 12 12 12 12 12 12 12 12 13 13 13 13 13 13 13 13 12 12 12 12 12 12 12 13 13 13 13 13 13 13 12 13 13 13 13 12 13 14 13 13 12 12 12 12 12 11 12 12 12 11 12 12 11 11 12 12 12
9 9 9 9 9 9 9 10 10 11 11 11 11 11 11 11 12 12 12 12 12 12 12 12 13 13 13 12 12 12 12 12 12 12 12 12 12 12 13 13 13 13 12 12 12 12 12 12 12 12 13 13 13 13 13 13 13 13 12 13 13 13 13 13 13 13 13 13 12 12 12 12 11 11 12 12 11 11 11 11 11 11 11 11 11
8 9 8 9 9 9 9 10 10 10 10 10 11 11 11 11 11 12 12 12 12 12 12 12 12 12 12 12 12 12 12 11 11 11 11 12 12 12 12 12 12 12 12 12 12 12 12 12 12 12 12 13 13 13 13 13 13 13 12 13 13 12 13 13 12 13 13 13 12 12 12 12 12 12 12 12 11 11 11 11 11 11 11 11 11
9 8 8 8 8 8 9 9 10 10 10 10 10 10 11 11 11 12 12 12 12 12 12 12 12 12 12 12 12 12 11 11 11 11 11 12 12 12 12 12 13 13 12 12 12 12 12 12 12 12 12 13 13 12 12 12 13 13 12 12 13 12 13 13 13 13 13 13 13 12 12 12 12 12 12 12 11 11 11 11 11 11 11 11 11
9 8 8 8 8 8 8 8 9 9 9 9 10 10 10 10 11 12 12 12 12 12 12 12 12 12 12 12 12 11 11 12 12 11 11 12 12 12 12 12 13 12 12 13 12 12 12 12 12 13 13 13 13 12 12 12 13 13 12 12 12 13 13 13 13 13 13 13 13 13 12 13 13 12 12 12 12 12 12 12 12 11 11 11 11
9 8 8 8 8 7 8 8 9 9 9 9 10 10 10 11 11 11 11 11 11 11 11 12 11 11 11 12 12 12 12 12 12 12 11 11 12 12 12 12 13 13 13 13 13 12 12 12 12 13 13 13 12 12 13 12 12 13 12 12 12 12 12 13 13 13 12 12 13 13 13 13 13 13 12 12 12 12 12 12 12 12 11 11 11
8 8 8 7 7 7 7 8 9 9 9 10 10 11 11 11 11 11 11 11 11 11 11 11 11 11 11 12 12 12 12 11 12 12 12 12 12 12 12 12 12 13 13 12 12 12 12 12 12 12 12 12 12 13 13 12 12 12 12 12 12 12 12 12 13 12 12 12 12 12 12 12 12 12 13 12 12 12 13 12 12 12 12 11 11
8 7 7 7 7 7 7 8 8 9 10 10 10 10 11 11 11 10 11 11 11 11 11 11 10 10 11 11 11 11 11 11 11 11 12 12 12 12 12 12 12 12 12 12 12 12 12 12 12 12 12 12 12 13 13 12 12 12 12 12 12 12 12 12 12 12 12 12 12 12 12 12 12 12 12 12 12 12 12 12 12 12 12 11 11
8 7 7 7 7 7 7 7 8 9 9 10 10 10 10 10 10 10 10 10 10 10 10 10 10 10 10 10 11 11 11 11 11 11 11 11 11 11 11 11 11 11 11 12 12 12 12 12 12 12 12 12 12 12 12 12 12 12 12 13 12 12 12 12 12 12 12 12 11 11 12 12 12 12 12 12 12 12 12 12 12 11 11 11 11
8 6 7 7 7 7 7 7 7 8 9 9 9 9 9 9 9 9 9 9 9 10 10 10 9 9 10 10 10 11 11 11 11 11 11 11 11 11 11 11 11 11 11 11 11 12 11 12 12 12 11 11 11 12 12 12 12 12 12 12 12 12 12 12 12 12 12 12 11 11 11 11 11 11 11 11 11 11 11 11 11 11 11 11 11
7 6 6 6 6 7 7 7 7 7 8 9 8 8 8 8 8 9 9 9 9 9 10 9 9 9 10 10 10 11 11 10 11 11 11 11 11 11 11 11 11 11 11 11 11 11 11 11 11 10 10 11 11 11 11 12 12 12 12 12 12 12 12 12 12 12 12 11 11 10 11 11 11 11 11 11 11 11 11 11 11 11 11 10 10
6 6 6 6 6 6 6 7 7 7 8 8 8 8 8 8 8 9 9 9 9 9 9 9 9 10 10 10 10 10 10 10 10 11 11 11 11 11 11 11 11 11 11 11 11 11 11 11 10 10 10 11 11 11 11 11 11 11 11 11 11 11 11 12 12 12 11 11 11 11 11 11 11 11 11 11 11 11 11 11 11 11 10 10 10
6 6 6 6 6 6 6 6 7 7 8 8 8 8 8 8 8 9 9 9 9 9 9 9 10 10 10 10 10 10 10 10 10 11 11 11 11 11 11 11 11 11 11 11 11 11 11 11 11 10 10 11 11 11 11 11 11 11 11 11 11 11 11 11 11 11 11 11 11 12 12 12 11 11 11 11 11 10 10 10 10 10 9 9 10
5 5 5 5 5 5 6 6 7 7 8 8 7 7 7 8 8 8 8 9 9 9 9 9 9 9 9 9 9 9 9 10 10 10 10 11 11 11 11 11 11 11 11 11 11 10 10 10 10 10 10 10 10 10 10 10 10 10 11 11 11 11 11 11 11 11 11 11 11 11 11 11 11 11 10 10 10 10 9 9 10 10 10 10 9
5 5 5 5 5 5 5 6 6 7 7 7 7 7 7 7 7 8 8 9 9 9 9 9 9 9 9 9 9 9 9 9 9 10 10 10 11 11 11 11 11 11 11 10 10 10 10 10 10 10 10 10 10 10 10 10 10 10 10 11 11 11 11 10 10 10 10 10 10 10 10 10 10 10 10 10 10 10 10 10 9 9 9 9 9
5 5 5 5 5 6 5 5 6 6 7 7 6 6 7 7 7 8 8 8 8 8 8 8 8 8 9 8 9 9 9 9 9 9 9 9 10 11 11 11 11 11 11 10 10 9 9 9 9 9 10 10 9 9 10 10 9 9 9 10 10 10 10 10 9 9 9 9 9 10 10 9 9 9 9 10 9 9 9 9 9 9 9 9 9
5 5 5 5 6 6 6 6 6 6 6 6 7 7 7 7 7 7 7 7 7 7 7 7 8 8 8 8 8 8 8 8 8 9 9 9 9 10 10 10 11 10 10 10 10 9 9 9 9 9 9 9 9 9 9 9 9 9 9 9 9 9 9 9 9 9 9 9 9 9 9 9 9 9 9 9 9 9 9 9 8 8 8 8 8
5 4 5 5 5 5 5 5 6 6 6 6 6 6 7 7 7 7 7 7 7 7 7 7 7 7 7 7 7 8 8 8 8 8 8 8 9 9 9 10 10 9 9 9 9 9 9 9 9 9 9 9 9 9 9 8 9 9 9 9 8 8 8 8 8 8 9 9 9 8 8 8 8 8 8 8 8 8 8 8 8 8 7 7 7
5 5 5 5 5 5 5 5 5 5 5 6 6 6 6 6 6 6 6 6 6 6 6 6 6 6 6 6 7 7 7 7 7 7 7 7 8 8 8 8 8 8 8 8 8 8 8 8 8 8 8 8 8 8 8 8 8 8 9 9 8 8 8 8 7 8 8 8 8 7 7 7 7 7 7 7 8 7 7 7 7 7 7 7 7
4 4 5 5 5 5 5 5 5 5 5 5 5 5 5 5 5 5 5 5 5 5 5 5 5 5 5 5 5 6 6 6 6 6 6 6 6 7 7 7 7 7 7 7 7 8 8 8 8 8 8 8 8 8 8 8 8 8 8 8 8 8 8 8 7 7 7 7 7 6 6 6 6 6 6 7 7 7 7 7 7 7 7 7 7
4 4 4 4 4 4 4 4 4 5 5 5 5 5 5 5 5 5 5 5 5 5 4 4 4 4 4 4 5 5 5 5 6 6 6 6 6 6 6 6 6 6 6 7 6 6 7 7 7 7 7 7 7 7 7 7 7 7 7 7 7 7 7 7 7 6 6 6 6 6 5 5 5 5 6 6 6 6 6 6 6 6 6 6 6
4 4 4 4 4 4 4 4 3 4 4 5 5 5 5 5 5 5 5 5 5 5 4 4 4 4 4 4 4 4 4 5 5 5 5 5 5 5 5 5 5 5 6 6 6 5 5 6 5 5 5 6 6 6 6 6 6 6 6 6 6 6 6 6 6 5 5 5 5 5 5 5 5 5 5 5 5 5 5 5 5 6 6 5 5
4 4 4 4 4 5 5 4 4 3 4 5 5 5 5 5 5 5 5 5 4 4 4 4 4 4 4 4 4 4 4 4 4 4 4 4 4 4 4 4 4 4 5 5 5 4 4 4 4 4 4 4 5 5 5 5 5 5 5 5 5 5 5 5 4 4 4 4 4 4 4 4 5 5 4 4 4 4 4 4 5 5 5 5 5
4 4 4 4 4 4 5 4 4 4 4 4 4 4 5 5 5 5 5 4 4 4 4 4 4 4 4 4 4 4 4 4 4 4 4 4 4 4 3 3 3 3 3 3 3 3 3 3 3 3 3 3 3 4 4 4 3 4 4 4 4 3 3 3 3 3 3 3 3 3 4 4 4 4 4 4 4 4 4 4 4 4 4 4 4
4 4 4 4 4 4 4 4 4 4 4 4 4 4 4 4 4 4 4 4 4 4 4 4 4 3 3 3 3 3 4 4 4 4 4 4 4 3 3 3 3 3 3 3 2 2 2 2 2 2 2 2 2 2 2 2 2 2 2 2 2 2 2 2 2 2 2 2 2 3 3 3 3 4 4 4 4 4 4 4 4 4 4 4 4
4 4 4 4 4 4 4 4 4 4 4 4 3 3 3 3 3 3 3 3 3 3 3 3 3 3 3 3 3 3 3 3 3 3 3 3 3 3 3 3 3 3 3 3 2 2 2 2 2 2 1 1 1 1 1 1 1 1 1 1 1 1 1 1 1 1 2 2 2 2 2 3 3 3 3 3 3 4 4 4 4 4 4 4 4
4 4 4 4 4 4 4 4 4 4 4 4 3 3 3 3 3 3 2 2 2 2 2 2 2 2 2 2 2 2 2 2 2 2 2 2 2 2 2 2 2 2 2 2 2 2 2 2 2 1 1 1 1 1 1 1 1 1 1 1 1 1 1 2 2 2 2 2 2 2 2 2 2 2 3 3 3 3 3 4 4 4 4 4 4
4 4 4 4 4 4 4 4 4 4 4 4 3 3 3 3 2 2 2 2 2 2 2 2 2 2 2 2 2 1 1 1 1 1 1 2 2 2 2 2 2 2 2 2 2 2 2 2 1 1 1 1 1 1 1 1 1 1 1 1 1 1 1 1 1 1 1 2 2 2 2 2 2 2 2 2 3 3 3 3 4 4 4 4 4
4 4 4 4 4 4 4 4 4 4 4 3 3 3 3 3 3 3 2 2 2 2 1 1 1 2 2 2 1 1 1 1 1 1 1 1 1 2 2 2 2 2 1 1 1 1 1 1 1 1 1 1 1 1 1 1 1 0 1 1 1 1 1 1 1 1 1 1 1 2 1 1 2 2 2 2 2 3 3 3 3 4 4 4 4
4 4 4 4 4 4 4 4 4 3 3 3 3 3 3 3 3 3 2 2 2 2 1 1 1 1 1 1 1 1 1 1 1 1 1 1 1 1 1 1 1 1 1 1 1 1 0 0 0 0 0 0 0 0 0 0 0 0 0 0 0 1 1 1 1 1 1 1 1 1 1 1 1 2 2 2 2 2 2 3 3 3 4 4 4
4 4 4 4 4 4 4 3 3 3 3 3 3 3 3 3 3 3 2 2 2 2 1 1 1 1 1 1 1 1 1 1 1 1 1 1 1 1 1 1 1 1 1 0 0 0 0 -0 -0 -0 -0 -0 -0 -0 -0 -0 -0 -0 -0 -0 -0 0 0 0 0 0 0 1 1 1 1 1 1 1 2 2 2 2 2 3 3 3 3 3 3
3 3 3 3 3 3 3 3 3 3 3 3 3 3 3 2 2 2 3 2 2 2 1 1 1 1 1 1 1 1 1 1 1 1 1 1 1 1 1 1 1 1 1 0 -0 -0 -0 -0 -0 -0 -0 -0 -0 -0 -0 -0 -0 -0 -0 -0 -0 -0 -0 -0 -0 0 0 1 1 1 1 1 1 1 1 2 2 2 2 2 2 2 3 3 3
3 3 3 3 3 3 3 3 3 3 3 2 2 2 2 2 2 2 2 2 2 2 1 1 0 1 1 0 0 1 1 1 1 1 1 1 1 1 1 1 1 0 0 -0 -0 -0 -1 -1 -1 -1 -1 -1 -1 -1 -1 -0 -1 -1 -1 -1 -0 -0 -0 -0 -0 -0 0 0 0 0 1 1 1 1 1 2 2 2 2 2 2 2 2 2 2
3 3 3 3 2 2 2 2 2 2 2 2 2 2 2 2 2 2 2 2 2 2 1 1 0 0 0 0 0 0 1 1 0 0 1 1 1 1 1 1 1 0 0 -0 -0 -1 -1 -1 -1 -1 -1 -1 -1 -1 -1 -1 -1 -1 -1 -1 -1 -1 -0 -0 -0 -0 -0 0 0 0 1 1 1 1 1 1 1 1 2 2 2 2 2 2 2
3 3 3 3 2 2 2 2 2 2 2 2 2 2 2 2 2 2 2 2 2 2 1 1 1 0 0 0 0 1 1 0 0 0 0 0 0 0 0 0 0 0 -0 -0 -0 -1 -1 -1 -1 -1 -2 -2 -2 -2 -2 -1 -1 -1 -1 -1 -1 -1 -1 -1 -1 -0 -0 -0 0 0 0 1 1 1 1 1 1 1 1 2 2 2 2 1 1
3 3 3 3 3 3 2 2 3 3 3 2 2 2 2 2 2 2 2 2 2 2 1 1 1 1 1 1 1 1 1 0 0 0 0 0 0 0 -0 -0 -0 -0 -0 -1 -1 -1 -1 -1 -2 -2 -2 -2 -2 -2 -2 -2 -2 -2 -1 -1 -1 -1 -1 -1 -0 -0 -0 0 0 0 0 1 1 1 1 1 1 1 1 1 1 1 1 1 1
2 3 3 3 3 2 2 2 2 2 3 3 2 2 2 2 2 2 2 2 2 2 2 1 1 1 1 0 1 1 1 0 0 -0 -0 -0 -0 -0 -0 -1 -1 -1 -1 -1 -1 -1 -1 -1 -2 -2 -2 -3 -3 -3 -2 -2 -2 -2 -2 -2 -1 -1 -1 -1 -0 -0 -0 0 0 0 0 1 1 1 1 1 0 0 0 0 0 1 1 1 1
2 2 3 3 3 2 2 2 2 2 2 2 2 2 2 2 2 2 2 2 2 2 2 1 1 1 1 0 1 1 0 0 0 -0 -0 -1 -1 -1 -1 -1 -1 -1 -1 -1 -1 -1 -1 -1 -2 -2 -2 -3 -3 -3 -3 -3 -2 -2 -2 -2 -1 -1 -1 -1 -1 -0 -0 0 0 0 0 1 1 1 0 0 0 0 0 0 0 0 0 0 0
3 3 3 3 3 3 2 2 2 2 2 2 2 2 3 3 3 2 2 2 2 2 2 2 1 1 1 1 1 1 1 0 0 -0 -0 -1 -1 -1 -1 -1 -1 -1 -1 -1 -1 -1 -2 -2 -2 -2 -2 -2 -3 -3 -3 -3 -2 -2 -2 -2 -2 -1 -1 -1 -1 -1 -0 -0 -0 0 0 0 0 0 0 -0 -0 -0 -0 -0 -0 -0 -1 -1 -1
3 3 3 3 3 3 3 2 2 2 2 2 2 2 3 3 3 3 2 2 2 2 2 2 1 1 1 1 1 1 1 1 0 0 -0 -0 -1 -1 -1 -1 -1 -1 -1 -1 -2 -2 -2 -2 -2 -2 -3 -3 -3 -3 -3 -3 -3 -2 -2 -2 -2 -2 -2 -1 -1 -1 -1 -1 -1 -0 -0 -0 -0 -0 -0 -0 -0 -0 -0 -0 -1 -1 -1 -1 -1
3 3 3 3 3 3 3 2 2 2 2 2 2 2 2 2 2 2 2 2 2 2 2 2 1 1 1 1 1 1 1 1 0 0 -0 -0 -0 -1 -1 -1 -1 -1 -1 -1 -2 -2 -2 -2 -3 -3 -3 -3 -3 -3 -3 -3 -3 -3 -3 -2 -2 -2 -2 -2 -2 -2 -1 -1 -1 -1 -1 -1 -1 -0 -0 -0 -0 -0 -0 -0 -1 -1 -1 -1 -1
4 4 3 3 4 3 3 3 2 2 2 2 2 2 2 2 2 2 2 2 2 1 2 2 1 1 1 1 1 1 1 1 0 0 0 -0 -0 -0 -1 -1 -1 -1 -2 -1 -1 -2 -2 -2 -2 -2 -2 -3 -3 -3 -3 -3 -3 -3 -3 -2 -2 -2 -2 -2 -2 -2 -2 -2 -1 -1 -1 -1 -1 -1 -1 -1 -1 -1 -1 -1 -1 -1 -1 -1 -1
4 4 4 4 4 4 3 3 3 3 3 3 2 2 2 2 2 2 2 2 2 2 2 2 2 2 2 1 1 1 1 1 0 0 0 0 -0 -0 -1 -1 -1 -1 -1 -1 -1 -2 -2 -2 -2 -2 -2 -2 -2 -2 -3 -3 -3 -3 -3 -3 -3 -3 -2 -2 -2 -2 -2 -2 -2 -1 -1 -1 -1 -1 -1 -1 -1 -1 -1 -1 -1 -1 -1 -1 -1
4 4 4 4 4 4 3 3 3 3 3 3 3 3 3 2 2 2 2 2 2 2 2 2 2 2 2 2 1 1 1 1 1 0 0 0 -0 -0 -0 -1 -1 -1 -1 -1 -1 -2 -2 -2 -2 -2 -2 -2 -2 -2 -2 -3 -3 -4 -3 -3 -3 -3 -3 -3 -2 -2 -2 -2 -2 -1 -1 -1 -1 -1 -1 -1 -1 -1 -1 -1 -1 -1 -1 -1 -1
4 4 4 4 4 4 3 3 3 3 3 3 3 3 3 3 2 2 2 2 2 2 3 3 2 2 2 2 1 1 1 1 1 1 0 0 0 -0 -0 -0 -1 -1 -1 -1 -1 -1 -2 -2 -2 -2 -2 -2 -2 -2 -2 -3 -3 -3 -3 -3 -3 -3 -3 -3 -3 -2 -2 -2 -2 -2 -2 -1 -1 -1 -1 -1 -1 -1 -1 -1 -1 -1 -1 -2 -2
4 4 4 4 4 4 4 3 3 3 3 3 3 3 3 3 3 3 3 2 2 2 3 3 2 2 2 2 1 1 1 1 1 1 0 0 0 -0 -0 -0 -1 -1 -1 -1 -1 -2 -2 -2 -2 -2 -2 -2 -2 -2 -2 -2 -3 -3 -3 -3 -3 -3 -3 -2 -2 -2 -2 -2 -2 -2 -2 -2 -2 -2 -2 -2 -2 -2 -2 -2 -2 -1 -1 -2 -2
3 4 4 4 4 4 3 3 3 3 3 3 3 3 3 3 3 3 2 2 2 2 2 2 2 2 2 2 1 1 1 1 1 1 0 0 -0 -0 -0 -1 -1 -1 -1 -1 -1 -2 -2 -2 -2 -2 -2 -3 -3 -3 -3 -3 -3 -3 -3 -3 -3 -2 -2 -2 -2 -2 -2 -2 -2 -2 -2 -2 -2 -2 -2 -2 -2 -2 -2 -2 -2 -2 -2 -2 -2
3 3 4 3 3 3 3 3 3 3 3 3 3 3 2 2 2 2 2 2 2 2 2 2 2 2 2 1 1 1 1 1 1 0 0 0 -0 -0 -1 -1 -1 -1 -1 -1 -1 -2 -2 -2 -2 -2 -2 -2 -3 -3 -3 -3 -3 -3 -3 -3 -3 -3 -2 -2 -2 -2 -2 -2 -2 -2 -3 -3 -3 -2 -2 -3 -3 -2 -2 -2 -2 -2 -2 -2 -2
3 3 3 3 3 3 3 3 3 3 3 3 3 2 2 2 2 2 2 2 2 2 2 2 2 1 1 1 1 1 1 1 1 0 0 -0 -0 -0 -1 -1 -1 -1 -1 -1 -1 -2 -2 -2 -2 -2 -2 -2 -3 -3 -3 -3 -3 -3 -3 -3 -3 -3 -2 -2 -2 -2 -2 -2 -2 -2 -3 -3 -3 -2 -2 -3 -3 -3 -2 -2 -2 -2 -2 -2 -2
Height
1516 1515 1515 1514 1513 1512 1511 1511 1510 1510 1510 1509 1508 1507 1505 1504 1502 1500 1498 1495 1492 1490 1489 1488 1488 1487 1487 1488 1489 1490 1490 1489 1490 1490 1490 1490 1489 1490 1491 1492 1493 1495 1497 1499 1501 1503 1505 1506 1507 1508 1509 1511 1512 1514 1515 1517 1518 1520 1521 1522 1523 1525 1526 1528 1529 1530 1531 1533 1535 1536 1537 1538 1539 1540 1541 1542 1543 1543 1543 1545 1546 1547 1548 1548 1549
1516 1515 1514 1513 1512 1512 1511 1511 1510 1510 1509 1508 1507 1506 1505 1503 1501 1499 1497 1495 1493 1490 1489 1488 1487 1486 1486 1487 1489 1491 1491 1491 1491 1490 1490 1490 1490 1491 1492 1492 1493 1495 1496 1498 1500 1501 1503 1504 1505 1507 1508 1509 1511 1512 1514 1516 1517 1517 1518 1520 1523 1524 1525 1526 1528 1528 1529 1531 1533 1534 1536 1538 1539 1539 1540 1541 1541 1542 1543 1543 1544 1545 1547 1548 1548
1516 1515 1514 1513 1513 1512 1511 1511 1510 1510 1509 1508 1507 1506 1504 1503 1501 1499 1497 1495 1493 1491 1489 1488 1488 1486 1485 1487 1489 1491 1492 1492 1492 1491 1491 1491 1491 1491 1492 1492 1493 1494 1496 1498 1499 1500 1502 1503 1503 1505 1507 1508 1509 1511 1513 1515 1516 1516 1517 1520 1522 1523 1524 1526 1527 1527 1528 1530 1532 1533 1535 1537 1539 1539 1540 1541 1541 1541 1542 1543 1544 1544 1545 1547 1548
1516 1515 1514 1514 1513 1512 1512 1511 1510 1509 1508 1508 1506 1505 1504 1502 1500 1498 1496 1495 1493 1492 1491 1490 1489 1488 1487 1488 1490 1492 1494 1493 1493 1492 1491 1491 1491 1492 1492 1493 1494 1494 1495 1497 1498 1499 1500 1501 1502 1503 1506 1507 1508 1510 1512 1513 1514 1515 1516 1519 1521 1522 1523 1525 1526 1527 1528 1529 1531 1533 1534 1537 1538 1539 1540 1541 1541 1542 1542 1543 1544 1544 1544 1546 1548
1517 1516 1516 1515 1514 1513 1512 1511 1510 1509 1508 1507 1506 1505 1503 1502 1500 1498 1496 1495 1493 1493 1492 1491 1490 1490 1490 1491 1493 1495 1495 1495 1494 1493 1492 1491 1491 1492 1493 1493 1494 1494 1495 1496 1497 1498 1499 1500 1501 1502 1504 1506 1508 1510 1511 1511 1513 1515 1516 1518 1520 1521 1522 1524 1525 1526 1527 1528 1530 1532 1534 1536 1538 1538 1539 1540 1540 1542 1543 1543 1544 1545 1545 1546 1548
1518 1518 1516 1515 1514 1513 1512 1511 1510 1508 1507 1506 1505 1504 1503 1501 1500 1498 1496 1495 1494 1493 1493 1492 1492 1492 1492 1493 1494 1495 1495 1495 1495 1494 1493 1492 1492 1493 1493 1494 1494 1494 1495 1496 1497 1498 1499 1499 1500 1502 1504 1506 1507 1508 1509 1510 1512 1514 1515 1517 1519 1520 1521 1523 1524 1525 1527 1528 1530 1532 1533 1535 1537 1537 1538 1539 1540 1541 1542 1543 1545 1546 1546 1546 1547
1520 1519 1517 1516 1515 1513 1512 1510 1509 1508 1507 1506 1505 1504 1503 1501 1500 1498 1497 1496 1495 1494 1494 1493 1493 1493 1493 1493 1494 1495 1495 1494 1494 1494 1494 1493 1493 1493 1494 1494 1494 1494 1495 1497 1498 1499 1499 1500 1501 1503 1505 1506 1506 1507 1509 1510 1512 1513 1514 1517 1518 1519 1520 1522 1523 1524 1526 1528 1530 1532 1533 1534 1536 1537 1538 1539 1540 1541 1542 1543 1544 1546 1546 1546 1546
1520 1519 1518 1516 1515 1513 1512 1510 1509 1508 1507 1506 1505 1504 1502 1501 1500 1499 1498 1497 1496 1496 1495 1494 1494 1494 1494 1494 1495 1495 1495 1495 1495 1495 1494 1494 1494 1494 1494 1495 1495 1495 1496 1497 1497 1498 1499 1500 1502 1503 1505 1506 1507 1508 1509 1510 1511 1512 1514 1516 1517 1518 1519 1521 1523 1524 1526 1528 1530 1531 1532 1534 1535 1537 1538 1539 1540 1541 1542 1543 1544 1545 1545 1546 1546
1521 1520 1518 1517 1515 1514 1512 1511 1509 1509 1508 1506 1505 1504 1503 1501 1500 1499 1498 1497 1496 1496 1496 1495 1495 1495 1494 1495 1495 1495 1495 1496 1496 1495 1495 1495 1495 1495 1495 1495 1495 1495 1496 1496 1497 1497 1499 1500 1502 1503 1504 1506 1507 1509 1509 1510 1511 1512 1514 1515 1515 1516 1518 1520 1521 1523 1524 1525 1528 1530 1531 1532 1534 1536 1537 1538 1539 1540 1541 1542 1544 1544 1545 1546 1546
1521 1520 1519 1518 1516 1515 1513 1512 1511 1509 1508 1507 1506 1504 1503 1502 1500 1499 1498 1497 1497 1497 1496 1496 1496 1496 1495 1495 1496 1496 1496 1496 1496 1496 1496 1496 1496 1496 1496 1497 1496 1496 1496 1497 1498 1498 1499 1500 1502 1502 1504 1506 1508 1508 1509 1510 1511 1513 1514 1514 1514 1515 1517 1518 1519 1521 1524 1525 1526 1528 1529 1530 1532 1534 1535 1536 1537 1538 1539 1540 1542 1544 1545 1545 1546
1522 1522 1521 1520 1518 1516 1514 1513 1512 1510 1509 1508 1507 1505 1504 1502 1501 1500 1499 1498 1498 1497 1497 1497 1497 1497 1497 1497 1497 1496 1496 1497 1497 1497 1497 1497 1497 1497 1497 1498 1497 1497 1498 1498 1499 1499 1500 1502 1502 1502 1504 1507 1508 1508 1509 1510 1511 1512 1513 1513 1514 1514 1516 1518 1519 1520 1523 1524 1526 1527 1527 1528 1531 1532 1533 1534 1534 1535 1536 1537 1540 1542 1543 1544 1546
1524 1523 1522 1521 1519 1517 1515 1514 1513 1511 1510 1509 1508 1507 1505 1504 1503 1502 1501 1500 1499 1498 1498 1498 1498 1499 1499 1499 1498 1498 1498 1498 1498 1498 1498 1498 1498 1498 1499 1499 1499 1499 1499 1499 1500 1501 1501 1503 1503 1503 1505 1507 1507 1507 1508 1510 1511 1512 1512 1513 1514 1515 1516 1518 1519 1520 1521 1523 1525 1527 1527 1528 1529 1530 1531 1532 1533 1534 1535 1536 1538 1540 1541 1542 1543
1524 1524 1523 1522 1520 1518 1517 1515 1514 1513 1512 1511 1510 1509 1507 1506 1505 1503 1503 1502 1501 1500 1500 1499 1500 1500 1500 1500 1500 1500 1500 1500 1500 1500 1500 1500 1500 1500 1500 1501 1501 1501 1501 1501 1501 1502 1502 1503 1504 1505 1506 1506 1506 1507 1508 1509 1510 1511 1512 1513 1514 1514 1515 1517 1519 1520 1521 1523 1525 1527 1527 1527 1528 1529 1530 1531 1532 1533 1533 1534 1536 1538 1539 1540 1541
1525 1524 1524 1522 1521 1520 1518 1517 1516 1515 1514 1513 1512 1510 1509 1508 1507 1506 1506 1505 1504 1503 1502 1502 1502 1502 1502 1502 1502 1502 1502 1501 1501 1501 1501 1501 1502 1502 1502 1502 1503 1503 1503 1502 1502 1502 1503 1504 1505 1506 1506 1506 1506 1507 1508 1509 1509 1510 1511 1513 1513 1514 1515 1517 1519 1520 1521 1523 1525 1525 1525 1526 1527 1528 1529 1531 1531 1531 1531 1533 1535 1536 1538 1539 1540
1526 1525 1524 1523 1522 1521 1520 1519 1518 1517 1515 1514 1513 1512 1512 1511 1510 1510 1509 1508 1507 1506 1505 1505 1505 1505 1504 1504 1504 1503 1503 1503 1502 1502 1503 1503 1503 1503 1503 1503 1504 1504 1504 1503 1502 1503 1504 1504 1505 1506 1507 1507 1507 1507 1508 1509 1509 1510 1511 1512 1513 1514 1516 1519 1520 1520 1521 1522 1523 1524 1524 1525 1526 1527 1529 1529 1530 1530 1530 1531 1533 1535 1536 1537 1537
1527 1526 1525 1524 1523 1523 1522 1521 1520 1519 1517 1516 1515 1514 1514 1513 1513 1512 1512 1511 1510 1509 1508 1508 1507 1507 1507 1506 1506 1505 1505 1505 1504 1504 1504 1504 1504 1505 1505 1505 1505 1505 1504 1504 1504 1505 1505 1505 1505 1506 1507 1508 1508 1508 1509 1509 1510 1512 1512 1512 1513 1515 1516 1518 1519 1520 1521 1522 1522 1523 1524 1525 1526 1527 1528 1528 1529 1529 1529 1530 1532 1533 1534 1535 1535
1527 1527 1526 1526 1525 1524 1524 1523 1522 1521 1520 1518 1517 1517 1516 1516 1515 1515 1514 1513 1513 1512 1511 1510 1510 1509 1509 1508 1508 1507 1507 1506 1506 1506 1506 1505 1505 1506 1506 1506 1506 1505 1505 1506 1507 1507 1506 1506 1506 1507 1508 1509 1509 1509 1510 1510 1510 1512 1512 1512 1513 1515 1515 1517 1518 1519 1520 1521 1521 1522 1523 1524 1525 1526 1527 1528 1528 1529 1529 1530 1531 1532 1532 1533 1534
1529 1528 1528 1528 1527 1526 1526 1525 1524 1523 1521 1520 1520 1520 1519 1518 1518 1517 1516 1516 1515 1514 1513 1513 1512 1511 1511 1510 1510 1509 1509 1508 1508 1507 1507 1507 1506 1506 1507 1507 1507 1506 1506 1507 1508 1509 1508 1508 1507 1508 1509 1510 1510 1510 1510 1510 1511 1512 1513 1513 1514 1514 1515 1517 1518 1519 1519 1520 1521 1521 1522 1523 1524 1525 1525 1526 1527 1528 1528 1529 1530 1530 1530 1531 1532
1531 1531 1530 1530 1529 1528 1528 1527 1526 1525 1524 1523 1523 1522 1521 1521 1520 1519 1518 1518 1517 1517 1516 1515 1514 1513 1513 1512 1512 1511 1511 1510 1510 1509 1509 1509 1508 1508 1508 1508 1508 1508 1508 1509 1510 1511 1511 1510 1509 1510 1510 1511 1512 1512 1512 1512 1513 1513 1514 1514 1515 1515 1516 1517 1517 1518 1519 1520 1520 1521 1522 1522 1523 1523 1524 1525 1526 1527 1527 1528 1529 1529 1529 1530 1531
1534 1533 1533 1532 1532 1531 1530 1530 1529 1527 1526 1526 1526 1525 1524 1523 1522 1521 1521 1520 1520 1519 1518 1517 1517 1515 1515 1514 1513 1513 1512 1512 1512 1511 1511 1510 1510 1510 1510 1509 1509 1510 1510 1510 1511 1511 1512 1512 1512 1512 1512 1512 1512 1513 1514 1514 1515 1515 1516 1516 1516 1516 1516 1517 1517 1518 1519 1519 1520 1521 1521 1522 1522 1523 1524 1524 1525 1526 1527 1527 1528 1528 1528 1529 1530
1536 1536 1535 1534 1534 1533 1532 1532 1530 1529 1529 1529 1528 1528 1527 1526 1525 1524 1523 1523 1522 1521 1520 1519 1519 1518 1517 1516 1515 1515 1515 1515 1514 1514 1513 1513 1513 1512 1512 1511 1511 1512 1512 1512 1511 1511 1512 1512 1513 1513 1513 1513 1514 1515 1515 1516 1516 1516 1517 1517 1517 1517 1517 1517 1517 1518 1518 1519 1519 1520 1521 1522 1522 1523 1523 1524 1525 1525 1526 1526 1527 1527 1527 1528 1529
1538 1538 1537 1537 1536 1536 1535 1534 1533 1532 1532 1531 1531 1530 1529 1528 1527 1526 1526 1525 1524 1524 1523 1522 1521 1520 1520 1519 1518 1517 1517 1517 1517 1517 1516 1516 1516 1515 1514 1514 1514 1514 1514 1513 1512 1512 1512 1513 1513 1514 1514 1515 1515 1515 1516 1516 1516 1516 1517 1517 1517 1517 1517 1517 1517 1518 1518 1518 1519 1520 1521 1521 1522 1522 1523 1524 1524 1524 1525 1526 1526 1527 1527 1527 1528
1540 1540 1540 1539 1539 1538 1537 1536 1536 1535 1535 1534 1533 1532 1531 1530 1529 1528 1528 1528 1527 1526 1525 1525 1524 1523 1522 1521 1521 1520 1520 1519 1519 1519 1519 1519 1518 1518 1517 1517 1516 1516 1515 1514 1514 1513 1513 1513 1513 1514 1515 1515 1515 1515 1516 1516 1516 1516 1516 1516 1516 1516 1516 1517 1517 1518 1518 1519 1519 1519 1520 1521 1522 1522 1523 1523 1524 1524 1524 1525 1526 1527 1527 1527 1528
1542 1542 1542 1541 1540 1540 1539 1539 1539 1538 1537 1536 1535 1534 1533 1532 1531 1531 1530 1530 1529 1528 1528 1527 1526 1525 1525 1524 1524 1523 1523 1522 1522 1521 1521 1521 1520 1520 1519 1519 1518 1517 1517 1516 1516 1515 1514 1514 1514 1514 1515 1515 1515 1515 1515 1515 1516 1516 1516 1516 1516 1516 1515 1516 1517 1518 1518 1519 1519 1520 1520 1521 1522 1522 1523 1523 1524 1524 1524 1525 1526 1526 1527 1527 1528
1543 1543 1543 1543 1542 1542 1541 1541 1541 1540 1539 1538 1537 1536 1535 1534 1533 1533 1532 1532 1531 1530 1530 1529 1529 1528 1528 1527 1526 1526 1525 1525 1524 1523 1523 1522 1522 1521 1521 1520 1520 1519 1519 1518 1518 1517 1516 1516 1516 1516 1515 1515 1515 1515 1515 1515 1515 1515 1516 1516 1516 1516 1515 1516 1516 1517 1518 1519 1520 1520 1521 1521 1522 1523 1523 1524 1524 1524 1524 1525 1525 1526 1526 1527 1528
1545 1545 1545 1545 1545 1544 1544 1543 1542 1542 1541 1540 1539 1538 1538 1537 1536 1535 1534 1534 1533 1533 1532 1532 1531 1530 1530 1529 1529 1529 1528 1528 1527 1526 1525 1525 1524 1523 1523 1522 1522 1521 1521 1520 1520 1519 1519 1518 1518 1517 1517 1516 1516 1516 1516 1516 1516 1516 1516 1517 1517 1516 1516 1516 1517 1517 1518 1519 1520 1520 1520 1521 1522 1522 1523 1523 1524 1524 1525 1526 1526 1526 1526 1526 1527
1546 1547 1547 1547 1547 1546 1546 1545 1545 1544 1543 1542 1541 1541 1540 1539 1538 1537 1536 1536 1535 1535 1534 1533 1533 1532 1532 1531 1531 1531 1530 1530 1529 1528 1528 1527 1526 1526 1525 1525 1524 1524 1523 1523 1522 1522 1521 1520 1520 1519 1518 1518 1518 1518 1517 1517 1517 1518 1518 1518 1517 1517 1517 1517 1517 1518 1519 1519 1519 1519 1520 1521 1521 1522 1522 1523 1524 1525 1525 1526 1526 1526 1526 1526 1527
1548 1548 1549 1549 1549 1548 1548 1547 1547 1546 1546 1545 1544 1543 1542 1541 1540 1539 1539 1538 1538 1537 1536 1535 1535 1534 1534 1533 1533 1532 1532 1531 1531 1530 1530 1529 1529 1528 1528 1527 1526 1525 1525 1524 1524 1523 1523 1522 1521 1521 1520 1520 1520 1519 1519 1519 1519 1519 1519 1519 1519 1518 1518 1518 1518 1519 1519 1519 1519 1520 1520 1520 1521 1521 1522 1522 1523 1524 1525 1525 1526 1527 1527 1527 1527
1549 1550 1550 1550 1550 1550 1550 1549 1549 1548 1548 1547 1547 1546 1545 1544 1543 1542 1542 1541 1541 1540 1539 1538 1537 1537 1536 1535 1535 1534 1533 1533 1532 1532 1532 1531 1531 1530 1529 1529 1528 1527 1527 1526 1525 1525 1524 1523 1523 1522 1522 1522 1521 1521 1521 1521 1521 1521 1521 1520 1520 1520 1520 1520 1519 1519 1519 1519 1520 1520 1520 1521 1521 1522 1522 1522 1523 1524 1525 1525 1526 1527 1528 1528 1528
1550 1551 1551 1551 1552 1552 1552 1551 1551 1550 1550 1549 1549 1548 1548 1547 1546 1545 1545 1544 1543 1542 1541 1540 1539 1539 1538 1537 1536 1535 1535 1535 1534 1534 1534 1533 1533 1532 1531 1530 1529 1529 1529 1528 1527 1526 1526 1525 1524 1524 1523 1523 1523 1523 1522 1522 1522 1522 1521 1521 1521 1520 1520 1520 1520 1520 1520 1520 1520 1521 1521 1521 1522 1522 1522 1523 1523 1524 1525 1526 1526 1527 1527 1529 1529
1552 1552 1552 1553 1553 1553 1553 1553 1553 1552 1552 1551 1551 1550 1550 1550 1549 1548 1547 1546 1545 1545 1544 1543 1542 1541 1540 1539 1538 1537 1537 1537 1536 1536 1535 1535 1534 1533 1533 1532 1531 1531 1530 1530 1529 1528 1527 1526 1526 1525 1525 1524 1524 1524 1524 1524 1523 1523 1522 1521 1521 1521 1521 1521 1521 1521 1521 1521 1521 1522 1522 1522 1522 1523 1523 1524 1524 1525 1525 1525 1526 1526 1527 1527 1528
1553 1554 1554 1554 1554 1554 1554 1554 1554 1554 1554 1553 1553 1552 1552 1552 1551 1550 1550 1549 1548 1547 1547 1546 1545 1543 1542 1541 1540 1539 1539 1538 1538 1538 1537 1537 1536 1535 1535 1534 1533 1532 1532 1531 1530 1529 1529 1528 1527 1526 1526 1526 1525 1525 1525 1525 1524 1523 1523 1522 1522 1521 1521 1521 1521 1521 1521 1521 1522 1522 1522 1523 1523 1523 1524 1524 1525 1525 1525 1525 1526 1526 1526 1527 1527
1553 1554 1555 1555 1556 1556 1556 1556 1556 1555 1555 1555 1555 1555 1554 1554 1553 1552 1552 1551 1550 1549 1549 1548 1547 1546 1545 1544 1542 1541 1540 1540 1540 1539 1539 1538 1538 1537 1536 1535 1535 1534 1533 1533 1532 1531 1531 1530 1529 1528 1528 1527 1526 1526 1526 1525 1525 1524 1524 1523 1523 1522 1522 1522 1522 1522 1522 1522 1523 1522 1522 1523 1523 1524 1524 1524 1525 1525 1526 1526 1527 1527 1527 1527 1528
1554 1555 1556 1556 1557 1557 1557 1557 1557 1557 1557 1557 1557 1556 1556 1556 1555 1555 1554 1553 1552 1551 1551 1550 1549 1548 1547 1546 1545 1544 1543 1542 1542 1542 1541 1540 1540 1539 1538 1537 1536 1535 1535 1534 1533 1533 1532 1531 1531 1530 1530 1529 1528 1528 1527 1526 1526 1525 1525 1524 1524 1523 1523 1523 1523 1523 1523 1523 1524 1523 1523 1524 1524 1525 1525 1525 1526 1526 1527 1527 1527 1527 1528 1528 1530
1557 1557 1557 1557 1557 1558 1558 1558 1558 1558 1558 1558 1558 1558 1558 1558 1557 1556 1556 1556 1555 1554 1553 1553 1552 1551 1550 1549 1548 1547 1546 1545 1545 1544 1543 1542 1542 1541 1540 1539 1538 1537 1536 1535 1535 1534 1534 1533 1533 1532 1531 1531 1530 1529 1528 1527 1527 1526 1525 1525 1525 1524 1524 1524 1524 1524 1524 1524 1524 1524 1525 1525 1525 1526 1526 1527 1527 1528 1527 1527 1527 1528 1528 1529 1531
1558 1559 1559 1559 1559 1559 1559 1559 1559 1559 1559 1559 1560 1560 1559 1559 1559 1558 1558 1558 1558 1556 1555 1555 1554 1553 1552 1551 1550 1550 1549 1548 1547 1546 1545 1544 1544 1542 1541 1540 1540 1539 1538 1537 1537 1536 1535 1534 1534 1533 1532 1532 1531 1530 1529 1528 1528 1527 1526 1526 1525 1525 1525 1525 1525 1525 1525 1525 1525 1525 1526 1526 1526 1527 1527 1527 1528 1528 1528 1528 1528 1528 1529 1530 1530
1559 1559 1560 1560 1560 1560 1561 1561 1561 1561 1561 1561 1561 1561 1561 1561 1561 1560 1560 1560 1559 1557 1557 1557 1556 1554 1553 1553 1552 1552 1551 1550 1549 1548 1547 1546 1545 1544 1543 1542 1542 1541 1540 1539 1539 1538 1537 1536 1535 1534 1533 1532 1531 1531 1530 1529 1529 1528 1528 1527 1527 1526 1526 1526 1526 1526 1526 1526 1526 1526 1526 1526 1527 1527 1528 1528 1528 1528 1528 1529 1529 1529 1530 1530 1530
1560 1560 1561 1561 1562 1562 1562 1562 1562 1563 1563 1562 1562 1562 1562 1562 1562 1561 1561 1561 1560 1559 1558 1557 1557 1556 1555 1554 1554 1553 1552 1552 1550 1549 1548 1547 1546 1546 1545 1544 1543 1543 1542 1541 1541 1540 1538 1537 1536 1535 1534 1534 1532 1532 1531 1530 1530 1529 1529 1528 1528 1528 1527 1527 1527 1527 1527 1527 1527 1527 1527 1527 1528 1528 1528 1528 1528 1528 1529 1529 1529 1529 1529 1529 1530
1561 1562 1562 1562 1563 1563 1563 1563 1564 1564 1564 1564 1564 1564 1563 1563 1563 1563 1562 1562 1562 1561 1559 1558 1558 1558 1557 1556 1555 1554 1554 1553 1552 1550 1550 1549 1548 1547 1546 1545 1545 1544 1543 1543 1542 1541 1540 1539 1537 1536 1535 1534 1533 1533 1532 1531 1531 1530 1530 1530 1529 1529 1529 1529 1529 1529 1529 1528 1528 1528 1528 1528 1529 1529 1528 1528 1529 1529 1529 1529 1529 1529 1529 1530 1531
1563 1563 1564 1564 1564 1565 1565 1565 1565 1565 1565 1565 1565 1565 1565 1564 1564 1563 1563 1563 1563 1562 1561 1560 1559 1559 1559 1558 1557 1555 1555 1554 1553 1552 1551 1550 1549 1548 1548 1547 1546 1545 1544 1543 1542 1542 1541 1540 1539 1537 1536 1535 1535 1534 1533 1533 1532 1531 1531 1530 1530 1530 1530 1529 1529 1529 1529 1528 1528 1528 1529 1529 1529 1529 1529 1529 1529 1530 1530 1530 1529 1529 1530 1531 1532
1564 1565 1565 1565 1566 1566 1566 1566 1566 1566 1566 1566 1566 1565 1566 1566 1565 1564 1564 1564 1563 1563 1562 1561 1560 1560 1560 1559 1558 1557 1556 1555 1554 1553 1552 1551 1550 1550 1549 1548 1547 1546 1545 1544 1543 1542 1542 1541 1540 1538 1537 1536 1535 1535 1534 1533 1533 1532 1532 1531 1531 1530 1530 1530 1529 1529 1529 1528 1528 1529 1529 1529 1529 1529 1530 1530 1530 1531 1530 1530 1530 1531 1531 1532 1532
1566 1566 1566 1567 1567 1567 1567 1566 1567 1567 1567 1566 1566 1566 1566 1566 1566 1565 1564 1564 1564 1564 1563 1562 1561 1561 1560 1560 1559 1558 1557 1556 1556 1554 1553 1552 1551 1550 1550 1549 1548 1547 1546 1545 1544 1543 1542 1541 1540 1539 1537 1537 1536 1535 1534 1534 1533 1533 1532 1532 1531 1531 1531 1531 1530 1529 1529 1529 1529 1529 1530 1530 1530 1530 1531 1531 1531 1531 1531 1531 1531 1532 1532 1533 1533
1566 1566 1567 1567 1567 1567 1567 1567 1567 1567 1567 1567 1567 1567 1566 1566 1566 1566 1565 1564 1564 1564 1564 1563 1562 1562 1561 1560 1560 1559 1558 1558 1557 1555 1554 1553 1553 1551 1551 1549 1548 1548 1547 1545 1544 1543 1542 1541 1540 1539 1538 1537 1537 1536 1535 1535 1534 1533 1533 1532 1532 1532 1531 1530 1530 1530 1530 1529 1530 1530 1531 1531 1531 1531 1532 1532 1532 1531 1532 1532 1532 1533 1533 1534 1534
1566 1567 1567 1567 1568 1568 1568 1567 1567 1568 1568 1567 1567 1567 1567 1567 1566 1566 1566 1565 1565 1564 1564 1563 1563 1562 1561 1560 1559 1559 1558 1558 1557 1556 1555 1554 1553 1552 1551 1550 1549 1548 1547 1545 1545 1544 1543 1541 1541 1540 1539 1538 1537 1536 1535 1535 1534 1534 1533 1533 1533 1532 1531 1531 1531 1531 1531 1531 1530 1530 1531 1532 1532 1532 1532 1531 1531 1532 1532 1532 1533 1533 1534 1534 1534
1567 1567 1568 1568 1568 1568 1568 1567 1567 1568 1568 1568 1568 1568 1567 1567 1567 1566 1566 1566 1565 1564 1563 1563 1562 1561 1561 1560 1559 1559 1558 1557 1557 1556 1555 1554 1553 1553 1552 1550 1549 1549 1547 1546 1545 1545 1543 1542 1541 1540 1539 1538 1537 1536 1535 1535 1534 1534 1533 1533 1532 1532 1531 1531 1532 1531 1531 1531 1531 1530 1531 1531 1531 1531 1531 1531 1531 1532 1532 1532 1533 1533 1534 1533 1533
1567 1567 1567 1568 1568 1568 1568 1568 1568 1568 1568 1568 1568 1568 1567 1567 1567 1566 1566 1566 1565 1564 1563 1563 1562 1561 1561 1560 1560 1559 1558 1557 1557 1556 1555 1555 1554 1553 1552 1551 1550 1549 1548 1547 1546 1545 1544 1542 1541 1540 1539 1538 1537 1535 1535 1534 1534 1533 1533 1532 1532 1531 1531 1531 1531 1531 1531 1531 1531 1531 1531 1530 1530 1531 1531 1532 1532 1532 1532 1532 1533 1533 1533 1533 1533
1566 1567 1567 1568 1568 1568 1568 1567 1567 1568 1568 1568 1568 1568 1567 1567 1567 1566 1566 1565 1564 1564 1564 1563 1562 1562 1561 1560 1560 1559 1559 1558 1557 1556 1555 1555 1554 1553 1552 1551 1550 1549 1548 1547 1546 1545 1544 1543 1542 1541 1539 1538 1537 1536 1535 1534 1534 1533 1532 1532 1532 1531 1531 1530 1530 1530 1531 1531 1531 1531 1531 1530 1530 1531 1531 1531 1531 1532 1532 1532 1533 1533 1533 1532 1532
1566 1566 1567 1567 1567 1568 1568 1568 1567 1568 1568 1568 1568 1567 1567 1567 1567 1566 1566 1565 1565 1564 1564 1563 1562 1562 1561 1559 1559 1559 1559 1558 1557 1556 1555 1555 1554 1553 1552 1551 1550 1549 1548 1548 1547 1546 1545 1544 1543 1541 1540 1538 1537 1536 1535 1534 1534 1533 1532 1532 1531 1531 1530 1530 1529 1529 1529 1530 1530 1530 1530 1530 1530 1531 1531 1531 1531 1531 1531 1532 1532 1532 1532 1532 1532
1566 1566 1566 1567 1567 1567 1568 1568 1568 1567 1567 1567 1567 1567 1566 1566 1566 1566 1565 1565 1564 1564 1563 1563 1562 1562 1561 1559 1559 1559 1558 1557 1557 1556 1555 1554 1554 1553 1552 1551 1550 1549 1548 1548 1547 1546 1544 1543 1542 1541 1540 1539 1538 1537 1536 1535 1534 1533 1532 1531 1531 1530 1529 1529 1528 1528 1528 1528 1528 1529 1529 1529 1530 1530 1530 1530 1531 1531 1531 1531 1531 1531 1531 1532 1532
1565 1565 1566 1567 1567 1567 1567 1567 1567 1567 1567 1567 1566 1566 1566 1566 1565 1565 1565 1564 1564 1563 1563 1562 1561 1561 1560 1559 1559 1558 1558 1557 1557 1556 1555 1554 1553 1552 1552 1551 1550 1549 1548 1548 1547 1546 1545 1543 1542 1541 1540 1539 1538 1537 1536 1534 1533 1533 1532 1531 1530 1529 1529 1528 1527 1527 1527 1527 1527 1527 1527 1528 1528 1528 1528 1529 1529 1530 1530 1531 1531 1530 1531 1531 1532
1565 1565 1566 1566 1566 1566 1566 1566 1566 1566 1566 1566 1565 1565 1565 1565 1565 1564 1564 1564 1563 1563 1562 1562 1561 1560 1560 1559 1559 1558 1558 1557 1556 1555 1555 1554 1553 1552 1551 1550 1550 1549 1548 1547 1547 1546 1545 1544 1542 1540 1539 1538 1537 1537 1536 1534 1533 1532 1531 1530 1529 1528 1528 1527 1526 1526 1525 1525 1525 1525 1525 1526 1526 1526 1527 1527 1528 1528 1529 1529 1529 1530 1530 1530 1530
Wind_Speed
11 11 12 12 13 14 14 14 14 13 13 14 15 17 19 21 23 23 22 22 21 20 19 18 18 18 19 21 20 18 16 16 14 12 11 12 12 11 10 9 10 10 11 12 13 14 17 19 19 19 20 20 20 22 23 21 19 19 16 15 15 13 11 12 15 17 17 17 17 15 15 14 14 14 12 10 14 16 14 13 11 9 10 10 10
11 11 12 13 14 15 15 14 13 13 14 15 15 17 18 20 22 22 22 22 20 19 18 18 17 17 17 18 16 14 13 12 11 9 8 9 8 8 7 6 7 8 8 10 12 13 17 19 18 18 20 19 19 21 22 19 18 18 16 16 16 14 12 13 15 16 16 18 19 17 16 13 14 16 14 11 15 15 11 12 11 9 9 10 11
11 11 13 14 14 15 15 14 14 14 15 15 15 16 18 19 20 21 21 21 20 17 17 17 17 15 12 12 9 7 9 9 8 8 7 7 6 6 6 7 9 10 9 11 13 15 18 19 17 16 17 18 17 19 20 18 18 17 15 14 15 14 13 13 14 16 17 20 20 18 17 15 15 17 14 11 14 13 10 11 11 9 8 7 9
12 14 16 16 16 16 15 14 14 15 15 16 15 15 17 18 18 19 19 20 18 16 15 15 15 12 8 7 7 5 6 6 5 6 6 5 5 5 6 7 9 9 9 10 12 14 15 15 13 13 14 16 17 17 17 18 19 17 14 12 13 13 13 14 15 15 16 20 20 17 17 17 17 16 13 12 14 13 10 11 10 9 9 8 9
15 16 17 17 17 16 13 11 12 13 13 14 14 14 15 16 16 17 17 17 17 15 13 12 11 10 7 7 8 6 4 3 3 4 4 4 5 5 5 6 7 8 8 8 9 10 11 11 11 12 14 16 16 15 16 18 18 16 14 12 12 12 12 15 16 15 17 20 20 16 14 16 17 14 11 11 15 15 12 10 12 13 14 12 9
17 18 18 17 16 16 14 11 9 9 11 12 12 12 13 14 14 15 16 16 15 14 13 11 9 8 7 6 5 4 3 2 2 2 2 2 3 5 5 5 5 6 6 8 8 8 10 11 12 12 12 14 16 16 16 18 16 15 15 13 13 14 15 17 17 17 18 19 19 18 16 16 17 15 11 10 15 18 14 10 13 16 15 12 11
17 18 18 17 16 16 16 13 10 9 12 14 13 12 12 12 13 14 14 14 13 12 12 12 9 7 6 5 4 1 1 2 2 1 1 0 2 3 4 3 3 4 5 7 8 9 10 11 11 11 11 13 16 16 15 16 15 15 15 14 14 16 17 18 18 18 18 17 17 18 18 17 17 16 13 11 12 17 17 13 14 16 15 14 15
16 16 16 15 15 16 16 15 13 11 12 13 13 12 12 12 12 13 11 10 11 11 11 11 10 8 6 5 4 2 0 1 1 1 2 2 1 2 2 2 1 2 4 6 8 9 10 11 11 11 12 13 15 15 13 12 13 14 14 13 14 16 17 19 20 20 20 19 18 18 19 18 17 17 16 13 12 15 17 14 14 17 16 15 15
14 15 15 15 16 16 17 16 14 13 13 13 13 13 13 12 11 11 9 8 8 8 8 8 8 8 6 4 3 2 1 2 2 2 3 2 2 1 0 1 1 2 3 4 6 9 10 11 12 12 12 12 12 13 12 11 12 13 12 11 13 15 17 20 22 23 22 22 19 18 19 20 19 18 17 16 14 14 15 14 14 17 17 14 13
14 16 17 18 18 18 18 16 14 14 14 15 16 16 15 12 10 10 9 9 8 7 7 7 6 5 5 3 3 4 3 3 4 4 3 4 4 3 3 4 4 5 5 4 6 9 10 10 11 11 10 9 10 11 11 11 11 10 9 10 13 16 19 22 23 23 22 21 19 19 21 21 20 20 19 17 17 16 14 14 15 15 15 14 12
15 17 18 18 18 18 17 16 16 16 17 18 18 18 17 14 13 12 12 12 12 10 10 9 7 6 6 4 3 4 5 5 6 4 3 5 7 5 4 4 4 6 5 3 5 7 7 6 8 10 8 8 11 11 11 11 11 10 9 10 13 17 19 20 21 20 18 17 17 18 20 20 19 20 20 19 20 19 18 18 17 15 15 15 14
14 17 17 17 18 18 17 18 18 19 19 20 20 20 20 19 17 17 17 17 16 14 14 12 9 8 8 8 6 6 7 7 7 5 3 3 5 5 3 2 3 5 5 3 0 3 4 3 5 9 8 9 11 11 11 12 10 9 9 11 14 17 17 17 16 16 15 14 13 13 15 17 18 17 16 17 18 17 16 17 18 16 17 17 19
14 17 18 18 18 18 18 18 19 20 20 20 20 20 22 22 21 20 20 20 20 20 19 17 13 12 12 12 12 10 8 7 7 6 5 3 4 4 3 4 4 5 4 3 2 1 6 5 3 5 6 6 7 8 10 11 10 10 10 11 14 15 15 15 14 13 13 12 14 15 15 16 15 12 12 14 15 13 13 15 16 17 18 18 19
16 18 18 18 19 18 18 18 19 19 19 19 19 20 22 23 22 21 19 19 20 22 22 21 18 16 14 13 12 9 7 8 9 7 8 8 7 6 6 6 6 7 4 2 2 3 10 7 3 5 6 5 6 6 7 8 9 10 11 11 11 11 11 11 11 13 13 12 13 14 14 13 11 10 11 12 12 12 14 14 14 15 16 15 15
17 18 18 19 20 19 19 19 19 19 19 20 20 20 22 22 22 21 20 19 19 20 20 19 17 15 13 12 12 10 8 8 8 6 8 10 10 9 9 9 10 10 8 5 5 4 9 10 7 7 8 7 8 8 9 10 9 9 10 11 10 10 10 9 9 11 11 9 8 9 10 10 9 10 11 11 11 11 10 9 10 11 12 11 11
18 18 18 19 20 21 21 21 21 21 21 21 21 21 21 20 20 20 20 20 19 19 19 18 17 15 13 12 13 12 10 8 6 3 4 7 8 10 11 11 12 12 11 9 9 7 5 10 10 9 10 11 11 12 13 12 10 9 10 11 10 11 11 9 8 9 8 7 7 8 8 9 9 10 11 10 9 9 8 7 7 9 11 10 11
18 17 18 18 19 20 21 22 23 23 24 24 24 23 22 20 19 19 20 19 19 19 19 19 17 16 14 13 14 13 11 10 8 6 6 7 6 8 10 11 12 13 14 13 11 8 3 7 9 10 12 12 11 13 14 12 10 9 10 11 11 11 10 9 8 8 8 8 8 7 8 8 9 9 9 9 8 8 9 9 8 9 10 10 10
18 18 19 19 19 20 20 22 23 24 25 26 25 24 23 22 21 20 19 19 19 20 20 19 18 17 15 14 14 12 12 13 13 12 12 11 8 5 6 9 11 12 13 13 12 9 3 4 6 9 11 10 8 10 11 12 12 12 10 9 9 8 7 6 6 5 5 6 6 6 7 7 7 8 8 8 8 8 9 9 7 7 8 9 11
19 19 20 20 21 21 21 22 22 23 24 23 23 23 22 22 21 21 21 20 20 20 20 19 18 18 17 15 13 12 12 13 14 14 14 14 12 9 7 7 8 9 9 10 10 8 5 2 2 5 7 7 5 5 6 7 9 9 8 7 5 5 5 5 5 5 5 5 5 5 5 5 6 6 6 7 7 7 7 8 8 7 6 6 7
19 19 20 21 21 22 22 22 21 21 21 20 20 20 20 20 20 20 21 20 20 20 20 19 18 19 19 17 16 15 14 13 13 13 12 13 13 12 11 10 10 9 8 7 7 6 4 3 1 2 4 4 2 1 1 3 4 3 2 3 3 5 6 6 5 5 5 5 5 4 4 4 4 5 5 6 6 6 6 8 9 10 9 7 6
19 19 20 21 21 22 22 22 22 22 21 20 19 19 19 19 19 19 19 19 19 19 19 19 18 18 19 19 18 18 17 16 14 14 13 13 12 10 9 9 10 8 6 5 5 5 3 2 3 3 3 2 0 3 3 2 1 1 2 3 2 2 4 6 5 5 5 4 4 4 4 3 3 3 4 5 5 6 7 8 9 9 8 8 8
17 18 19 20 21 21 22 22 23 22 21 20 19 19 19 19 19 20 20 19 20 20 20 19 20 19 19 18 18 17 17 16 16 15 15 15 15 13 12 11 10 8 5 3 4 4 3 2 2 2 1 2 3 4 4 2 1 2 4 5 4 3 4 5 4 4 4 5 7 8 6 4 3 2 2 2 2 3 5 6 8 8 7 8 10
16 17 17 18 18 19 21 23 23 23 21 20 20 19 19 19 19 20 21 21 21 22 22 21 22 22 21 20 19 17 16 16 15 15 15 15 15 15 15 14 12 10 8 6 6 6 4 3 2 2 2 3 4 4 3 2 1 2 4 5 5 4 5 5 5 6 8 9 10 11 10 8 5 2 1 3 4 3 2 1 4 7 7 7 10
16 17 17 18 18 18 19 20 21 22 22 22 22 21 20 20 20 20 21 21 22 22 23 23 23 23 23 23 22 21 19 17 16 16 15 15 15 15 15 14 13 12 10 8 7 7 6 6 6 5 5 4 3 3 3 2 2 3 4 5 5 6 6 7 9 11 11 11 11 10 9 7 3 2 3 5 6 5 4 4 2 3 5 7 9
17 17 17 18 19 20 20 20 20 20 22 23 24 23 23 22 21 21 21 21 21 22 22 22 23 23 23 23 23 22 21 19 18 18 17 17 17 17 16 15 15 14 12 10 9 9 8 8 8 8 7 6 4 3 2 1 1 1 2 3 5 6 7 9 10 10 10 9 8 7 5 3 1 0 1 4 5 5 6 7 6 5 4 5 7
17 17 18 18 19 21 22 23 22 22 23 25 26 25 24 23 23 22 22 21 20 20 19 20 20 21 21 21 20 19 19 18 18 19 18 18 18 18 18 17 17 16 15 14 12 11 9 8 8 8 8 8 6 6 6 5 5 4 3 3 4 6 7 8 8 8 8 7 5 4 3 1 2 2 2 3 5 6 6 7 8 9 7 5 4
16 16 17 17 18 19 21 23 24 25 25 26 27 27 27 26 26 26 26 25 22 20 19 19 19 19 18 18 18 17 17 17 17 18 18 19 19 19 18 17 17 17 16 16 15 14 12 10 8 8 8 9 9 9 9 9 9 8 8 7 7 6 7 7 7 6 5 4 3 2 1 2 2 1 3 5 7 8 7 6 5 5 4 5 6
16 16 15 15 15 16 16 18 21 24 25 26 27 28 29 30 30 31 31 30 27 24 22 21 20 19 18 17 17 17 17 18 18 18 18 18 18 18 18 17 17 17 17 17 16 16 16 15 13 12 11 12 13 13 14 14 13 13 13 13 12 11 10 9 9 7 5 4 2 2 1 1 2 4 6 7 7 8 10 9 8 7 6 3 4
14 14 14 15 15 14 14 14 17 20 22 23 25 27 28 30 30 31 32 32 31 29 27 24 21 19 18 17 18 18 18 19 19 18 18 18 18 18 17 17 17 16 16 15 14 14 15 15 16 15 14 14 14 13 13 13 12 12 12 12 12 12 12 12 10 8 6 3 1 0 1 2 2 3 4 4 4 6 9 9 9 9 7 3 2
15 15 15 15 14 15 15 14 14 17 19 20 22 23 25 27 28 28 29 30 32 32 30 28 24 21 19 18 18 18 18 18 18 18 18 18 18 18 17 17 17 16 16 15 13 11 11 12 12 12 12 12 12 11 11 11 10 9 10 10 10 10 11 11 10 9 7 4 1 2 3 4 4 4 3 3 4 7 8 8 8 7 6 5 5
15 15 16 16 15 15 15 15 15 15 16 17 19 20 21 23 24 23 24 26 29 30 30 29 27 25 23 20 18 16 16 15 16 17 18 18 19 19 19 18 18 17 18 18 16 13 12 12 11 10 10 10 10 10 10 9 9 9 9 9 9 10 10 8 7 7 7 4 1 4 6 6 4 3 3 5 7 8 7 6 5 4 4 7 9
14 14 14 15 15 15 15 15 15 15 15 15 15 17 18 19 20 20 19 21 25 28 28 28 28 28 27 24 20 16 15 15 16 17 18 17 17 18 19 19 19 18 19 20 19 18 17 15 14 13 11 10 10 9 8 8 8 9 9 8 8 9 8 6 4 6 8 7 5 5 4 4 5 5 4 3 4 4 4 3 3 3 6 11 12
16 14 13 13 14 15 15 15 15 15 15 15 15 15 15 16 17 18 17 17 20 24 26 27 28 29 29 29 26 21 17 16 16 16 16 17 17 16 16 16 16 16 16 17 17 17 16 16 15 13 12 11 11 10 9 9 8 9 9 8 8 9 7 4 3 2 4 6 6 3 2 3 5 7 5 4 5 5 3 2 3 4 7 10 11
16 16 14 14 14 14 14 15 15 15 15 15 15 15 15 15 15 16 16 16 17 21 23 24 25 27 28 29 29 27 22 19 18 16 15 15 17 18 17 16 14 13 13 15 15 15 14 15 15 13 11 11 10 8 8 8 8 9 9 8 8 8 6 4 4 3 1 4 4 4 2 3 4 4 4 5 6 7 6 6 5 5 5 7 8
13 14 14 15 15 14 14 15 14 14 15 15 15 15 14 14 15 16 16 15 15 17 19 21 22 23 23 24 25 25 24 22 21 20 18 16 16 17 18 18 18 17 17 16 16 15 14 15 15 15 14 13 11 10 9 7 6 7 7 6 5 4 3 3 4 5 4 2 3 5 6 7 5 4 5 6 6 6 5 5 6 7 7 7 7
13 13 13 14 14 15 15 15 15 15 15 15 14 15 15 14 14 15 16 15 14 14 16 19 20 19 19 20 20 20 22 22 21 20 20 19 17 16 17 18 19 19 19 18 16 15 14 13 12 13 13 12 11 11 10 8 7 6 4 3 3 2 2 3 4 5 4 2 2 4 5 3 2 2 4 5 4 4 4 4 6 9 9 8 7
14 14 13 13 14 14 14 14 15 15 15 14 14 14 14 14 14 14 15 15 14 12 14 18 21 20 17 15 15 16 18 20 19 16 16 18 18 18 17 16 17 18 18 18 17 16 15 14 12 11 11 10 10 10 9 8 7 7 6 5 4 3 2 1 2 4 3 3 3 4 3 1 3 4 4 3 3 2 4 6 5 7 8 8 7
15 16 15 14 13 13 13 13 13 12 13 13 14 14 14 14 14 14 14 14 13 13 13 16 21 23 18 12 13 15 15 16 17 16 16 17 18 17 17 16 15 16 16 16 16 15 15 15 14 12 11 10 8 7 7 7 7 7 8 8 7 5 3 3 4 6 6 6 5 6 5 5 6 5 3 3 2 1 2 5 4 4 6 7 6
13 13 14 14 13 13 12 12 12 12 12 12 12 13 13 13 13 13 13 13 13 13 12 12 18 23 20 14 13 15 15 15 16 17 16 16 16 16 16 15 15 15 15 14 13 13 14 15 15 13 12 12 10 9 8 8 7 6 7 8 8 7 7 7 6 5 6 6 5 4 4 5 4 3 4 5 4 4 6 7 4 4 6 6 6
12 12 13 13 12 12 12 11 11 11 11 11 11 11 11 11 12 12 13 12 12 13 11 10 14 20 21 17 15 15 15 15 15 15 15 15 14 14 15 14 13 14 15 14 13 11 11 13 15 15 13 12 11 10 10 9 7 6 7 6 5 3 2 2 3 2 2 1 1 2 5 6 4 3 5 5 5 5 6 5 4 5 4 3 5
11 12 12 12 10 9 10 11 11 10 10 9 9 10 10 9 10 11 11 10 11 12 11 10 12 16 18 17 16 15 15 14 14 14 15 15 14 14 14 14 13 13 13 13 15 14 10 10 12 15 15 11 7 6 8 8 6 6 7 6 4 3 2 2 1 1 3 3 2 3 5 6 5 3 4 4 4 4 3 2 3 3 3 2 3
8 9 9 9 9 7 7 8 10 10 9 8 9 10 10 8 8 10 11 10 10 11 11 10 11 14 15 16 15 15 14 14 14 13 14 14 14 14 13 13 13 14 12 12 15 16 12 7 8 12 14 13 9 6 4 3 3 5 5 4 3 4 4 3 2 2 3 3 2 1 3 3 2 1 2 3 4 3 3 5 4 3 2 3 3
8 8 7 7 7 6 5 7 9 9 8 8 9 10 10 7 6 9 11 10 9 10 10 10 10 12 13 14 13 13 13 13 12 13 13 12 12 12 12 12 12 12 11 12 15 16 14 10 9 10 11 10 10 9 8 5 3 1 2 2 0 1 2 1 1 1 2 2 2 2 2 2 1 0 2 3 3 3 5 5 3 1 2 4 3
6 8 7 6 6 6 5 6 9 9 8 8 9 8 8 8 7 8 10 10 10 9 9 9 10 11 11 11 12 12 12 11 11 12 12 11 10 10 11 12 12 11 12 15 18 17 15 13 13 14 13 10 8 8 8 7 5 4 3 3 3 4 5 5 3 3 2 1 2 3 4 4 2 0 2 3 2 3 5 5 4 3 3 3 4
6 6 5 4 4 5 5 6 7 7 6 7 7 6 6 7 7 7 8 9 9 9 8 9 10 11 10 10 11 13 12 11 10 11 11 11 11 10 10 12 13 11 11 16 19 18 17 17 17 17 17 16 13 9 6 6 7 7 5 4 5 7 8 8 7 6 7 6 4 4 4 3 2 1 3 4 3 3 4 5 6 7 5 3 4
6 5 3 3 4 5 4 3 5 5 3 4 5 5 5 7 6 6 7 8 8 8 8 9 10 10 10 9 10 12 11 11 11 10 9 9 11 11 10 12 13 11 9 14 17 17 18 19 20 18 18 18 18 14 8 5 5 7 7 5 6 8 10 9 8 8 9 9 7 5 4 6 6 4 4 4 3 2 4 6 7 7 5 4 4
6 4 3 2 3 4 2 2 4 4 3 3 4 4 5 6 6 6 7 8 9 8 9 9 9 10 10 9 10 11 11 10 10 11 10 9 9 10 10 11 11 11 10 11 14 16 18 18 18 19 20 20 19 18 14 7 5 7 9 9 7 8 10 10 8 7 9 12 11 7 6 7 8 7 7 7 5 2 3 6 7 5 6 5 2
2 3 3 2 1 2 2 2 4 4 2 3 4 4 4 6 6 6 6 7 8 8 9 9 9 9 10 10 10 10 10 10 10 10 10 9 9 9 10 10 11 12 11 9 11 15 17 16 15 17 20 20 20 20 17 12 9 10 11 11 10 10 10 10 9 7 8 12 14 12 10 10 9 8 9 10 9 6 5 4 4 4 5 6 3
3 2 2 1 1 2 1 1 2 3 2 3 4 5 5 6 6 6 7 7 8 8 8 9 9 9 10 11 11 9 10 10 10 9 10 10 9 9 9 9 11 13 11 9 10 13 15 16 18 18 17 17 19 19 18 15 13 12 11 11 12 11 11 11 10 10 9 10 13 14 13 13 12 11 10 11 11 10 9 9 6 4 4 5 5
3 3 2 1 1 0 1 2 2 2 3 4 4 4 5 5 6 7 7 7 8 8 8 9 9 8 8 10 11 10 10 10 10 9 10 10 10 10 9 9 10 11 11 10 10 11 12 16 19 20 18 18 19 18 18 17 16 14 13 13 12 12 12 12 11 11 11 11 12 14 14 14 15 14 13 12 11 11 11 12 11 10 8 6 6
2 2 3 2 2 2 2 3 3 3 4 4 4 5 5 6 6 7 7 8 8 8 8 8 9 9 9 9 10 10 10 10 10 10 10 10 10 11 11 11 10 11 12 11 10 9 10 13 16 18 21 22 20 17 17 18 19 17 15 14 13 12 12 12 12 12 11 11 12 14 15 16 16 16 14 13 11 9 10 11 13 13 12 10 7
Wind_Direction
359 357 346 339 340 340 338 332 331 334 333 330 329 325 324 329 332 334 335 335 338 342 344 339 325 310 302 297 288 275 263 252 244 238 231 228 225 221 212 194 190 192 190 204 216 219 222 220 218 219 218 220 219 214 215 216 216 217 213 210 216 225 220 206 210 208 193 190 193 190 196 199 186 191 210 210 194 191 195 201 204 206 212 216 213
3 356 344 346 351 348 346 348 353 351 343 335 330 328 330 332 334 337 339 338 340 342 340 340 333 317 308 303 286 260 247 239 226 216 212 215 213 209 207 201 207 212 212 223 227 221 218 216 214 216 217 218 217 214 215 214 214 217 216 214 218 217 205 199 209 207 189 184 188 190 199 193 172 188 215 210 191 192 191 183 186 196 203 207 208
2 356 353 1 0 353 359 9 4 351 343 337 332 333 336 336 336 340 343 343 344 347 343 343 344 333 318 313 299 254 238 230 209 201 203 202 197 197 209 219 224 226 221 224 227 221 216 213 211 214 217 217 217 214 213 213 214 218 221 217 213 207 193 190 206 207 188 181 184 190 194 181 174 195 209 193 184 187 177 170 180 191 191 200 208
4 2 6 11 8 7 16 19 3 353 351 347 341 340 340 340 341 342 346 348 351 357 355 349 357 2 353 334 323 280 246 237 214 206 205 204 210 213 221 226 225 225 218 212 213 213 214 214 210 212 219 220 219 216 215 216 215 217 223 219 208 201 191 191 206 210 190 178 179 187 188 178 182 198 203 189 179 178 178 169 162 179 203 221 214
11 7 11 14 10 11 17 13 4 4 2 353 347 343 340 344 347 345 348 352 355 4 5 357 4 16 14 351 331 309 279 264 248 229 217 216 219 216 219 224 225 229 224 214 210 208 214 219 214 215 220 219 219 218 217 218 217 214 219 219 207 202 196 192 197 202 196 183 175 178 184 180 183 193 205 193 169 170 189 170 149 179 212 225 207
15 9 12 14 9 5 1 358 360 358 350 347 345 341 340 347 353 352 354 355 356 7 12 7 8 9 5 11 1 327 304 309 302 273 249 223 201 199 209 221 231 238 226 218 222 221 222 224 221 221 220 216 219 220 213 215 216 209 208 210 206 203 197 191 190 193 194 186 173 173 181 183 184 189 200 191 164 171 190 173 162 190 210 214 206
18 13 13 12 7 359 356 356 356 345 339 343 346 343 339 339 341 347 355 358 359 10 15 8 9 11 11 34 54 39 312 355 2 332 324 168 175 190 205 219 240 242 229 232 240 238 235 232 230 232 226 220 224 222 212 211 212 206 203 202 204 209 200 186 183 183 182 180 175 175 177 180 184 184 188 191 171 176 189 180 177 196 206 207 211
20 15 12 10 5 1 3 6 6 359 354 356 358 355 350 344 341 347 358 2 3 12 13 2 1 10 15 33 45 25 343 76 85 54 63 90 142 180 210 216 215 214 224 240 251 254 248 238 232 232 225 222 227 223 213 212 211 209 209 204 208 214 201 182 178 179 177 174 175 178 178 179 183 180 183 190 180 182 197 194 185 197 207 210 215
19 13 12 14 14 13 15 15 14 15 17 17 15 10 6 3 358 360 10 14 9 10 8 1 360 5 11 26 41 42 105 114 95 56 46 68 103 121 346 31 348 294 253 241 254 261 254 239 234 237 230 223 223 218 213 217 216 214 211 207 209 207 195 185 184 182 180 176 175 182 184 183 184 182 181 188 188 188 200 200 193 203 213 215 219
19 20 21 22 24 24 23 23 25 31 32 29 27 23 18 16 14 16 23 24 19 14 9 7 10 22 36 50 77 92 100 95 78 60 49 55 54 35 37 41 2 316 296 265 257 254 248 238 235 240 237 219 207 207 211 213 210 209 207 203 204 201 195 193 190 186 185 182 183 191 190 186 188 189 186 189 193 191 192 191 189 199 211 212 213
16 29 28 25 28 30 32 37 40 40 38 33 31 29 27 28 31 34 35 32 31 30 24 20 15 27 45 48 63 92 92 83 69 56 62 65 53 46 50 47 8 335 328 294 247 235 230 232 233 234 232 206 189 189 200 202 195 197 200 194 195 199 200 198 193 189 189 192 199 203 196 188 191 196 196 196 198 198 198 197 190 190 199 200 192
19 35 32 28 30 33 41 47 45 43 41 37 35 36 37 40 43 46 47 45 46 47 42 37 27 25 40 48 49 53 59 66 61 41 41 60 51 55 64 49 25 8 9 35 351 234 201 190 222 221 214 201 188 180 187 195 193 195 195 185 184 191 195 194 192 191 192 198 208 209 201 197 200 203 205 207 209 210 208 204 202 202 204 201 194
33 38 35 33 31 32 42 48 46 44 43 40 40 44 46 48 49 52 53 53 57 60 56 54 51 45 46 53 56 55 53 60 60 45 37 30 15 17 12 2 6 4 9 46 23 184 154 134 147 168 173 199 201 185 184 187 184 185 184 176 176 183 191 196 197 198 200 201 195 188 191 200 203 206 213 221 226 226 218 210 211 218 220 217 212
42 39 38 39 35 35 42 48 47 46 46 45 46 48 50 50 49 51 53 53 58 63 63 62 63 60 57 52 50 56 67 66 60 48 39 33 19 5 350 343 349 354 357 358 351 139 141 131 117 144 159 192 200 189 186 179 174 177 178 178 179 181 185 190 189 187 192 195 189 185 191 200 207 216 223 226 227 226 222 217 217 224 229 227 224
43 41 43 44 42 41 46 51 51 51 51 51 52 52 52 52 50 50 52 51 50 53 55 56 55 52 50 41 34 46 71 68 56 44 34 31 25 16 9 6 4 2 2 3 3 65 123 131 144 154 156 164 167 162 157 155 163 175 177 178 182 176 164 158 162 170 178 186 186 188 196 202 211 219 217 215 218 221 223 218 208 215 222 221 225
47 46 47 48 48 46 48 53 55 55 56 55 55 56 56 56 55 54 54 52 49 47 45 45 42 39 38 33 32 46 64 58 44 32 19 15 11 10 15 21 18 8 2 360 353 2 87 127 145 154 151 149 149 149 147 145 145 154 163 166 172 177 170 156 149 154 162 172 176 179 186 193 202 210 212 215 219 220 222 215 206 219 230 229 228
50 50 47 49 53 54 53 55 57 57 57 56 55 55 55 55 55 54 53 50 48 46 44 42 41 40 41 39 39 45 47 36 31 34 28 20 11 4 5 10 11 9 6 2 356 354 49 131 149 158 157 152 142 146 160 162 145 135 150 163 168 173 170 156 144 145 152 163 171 177 186 194 203 212 218 223 223 222 226 225 220 229 236 225 211
50 52 51 51 56 62 63 63 63 60 58 58 56 55 54 54 54 52 51 49 47 46 45 43 41 40 40 40 39 41 38 28 27 32 30 28 30 18 358 347 347 357 6 6 4 4 25 141 148 146 150 150 138 139 155 160 151 145 153 166 164 157 154 149 144 146 153 164 171 180 192 202 208 215 221 223 221 221 223 219 210 217 225 212 202
52 54 57 57 58 61 64 65 64 61 59 59 57 56 56 57 57 55 53 51 50 49 46 44 45 45 44 43 39 38 38 31 27 29 28 28 34 35 30 18 11 18 25 19 12 12 15 26 110 128 140 148 150 151 144 131 128 135 151 171 164 136 133 149 161 172 179 184 186 191 204 214 217 219 220 216 214 215 214 206 188 181 189 191 194
59 59 63 66 65 65 65 65 64 62 60 58 56 55 55 56 57 56 55 54 53 52 51 49 50 50 48 47 43 39 37 32 27 27 26 28 33 36 38 44 49 53 58 50 37 30 22 15 51 152 168 169 157 153 140 117 107 106 139 179 164 140 147 162 175 191 201 207 206 200 201 209 212 214 213 206 202 201 197 194 186 177 170 167 173
63 63 67 70 70 70 68 65 63 61 59 59 59 58 56 55 55 54 54 55 54 53 52 50 49 51 50 48 46 43 40 36 33 34 36 38 41 42 45 53 58 55 53 67 75 74 74 93 123 134 156 177 55 10 13 51 127 272 281 270 257 190 188 189 188 200 211 209 192 168 159 181 196 203 211 208 203 195 185 182 185 181 175 178 186
63 63 64 64 63 63 64 63 62 59 56 55 56 58 59 59 59 57 55 54 53 52 51 48 47 48 49 48 48 48 46 44 40 41 45 46 46 45 45 49 52 43 27 41 78 85 91 107 121 111 67 327 333 345 350 347 267 237 229 233 238 238 232 222 206 197 187 169 155 143 135 145 154 149 183 207 205 201 194 187 187 189 192 190 181
65 61 61 61 60 59 57 56 55 55 56 56 54 55 57 57 58 59 56 53 53 51 50 49 49 48 46 46 47 47 47 47 44 41 42 41 39 37 36 35 36 32 24 27 41 50 61 71 71 50 360 338 340 345 346 324 265 202 188 199 209 215 224 215 180 154 142 138 138 134 130 132 134 116 49 27 21 1 338 204 182 185 191 189 176
73 67 61 59 60 63 63 60 56 52 53 56 55 54 54 53 54 57 55 52 51 50 48 48 48 48 47 45 44 44 43 42 40 37 34 32 32 31 30 28 27 25 23 25 31 36 43 49 51 48 36 20 359 333 317 299 256 207 192 193 195 192 186 170 154 143 135 132 128 125 125 125 116 78 43 36 26 17 23 36 62 156 181 189 183
76 73 69 64 62 63 66 67 66 61 57 56 56 55 54 53 53 54 54 51 49 47 47 45 45 46 46 44 43 43 41 37 36 33 29 28 30 31 30 29 28 25 24 26 27 27 33 42 48 50 50 45 32 10 357 8 15 205 191 174 161 156 149 142 137 131 127 125 118 114 119 116 85 271 71 56 47 46 48 48 57 82 123 173 184
72 70 70 70 67 65 64 64 63 62 60 57 55 54 53 53 53 52 52 51 47 45 45 45 43 43 43 42 41 40 39 38 37 37 35 34 35 36 34 32 30 27 27 29 30 29 31 37 41 45 49 52 50 47 47 49 51 53 67 95 111 115 112 108 105 101 98 96 91 87 83 29 303 262 192 127 112 97 73 55 60 68 68 77 111
76 73 68 65 60 57 58 59 57 56 54 51 50 48 47 48 50 50 49 47 45 42 41 41 41 39 39 40 38 36 37 38 37 37 36 36 36 36 35 34 33 31 29 28 28 27 24 20 16 18 30 38 42 45 44 41 39 37 37 40 46 59 71 74 72 72 70 66 63 54 20 329 299 185 153 164 165 147 130 111 90 84 80 67 56
75 73 68 66 61 53 49 48 48 49 47 44 43 43 43 42 44 45 44 43 41 40 39 39 39 36 35 37 34 31 32 33 33 32 31 31 31 29 28 29 29 29 29 27 26 25 22 20 20 25 33 39 40 39 39 37 34 32 31 31 31 31 32 36 39 37 28 21 23 23 19 185 164 144 149 167 174 162 152 147 136 136 143 113 28
79 74 68 66 65 61 54 43 36 37 39 38 38 40 41 41 42 42 41 39 37 35 36 38 38 35 34 35 33 30 30 30 29 29 28 27 26 24 23 24 23 22 22 22 22 23 23 22 25 30 35 39 38 34 31 28 26 25 24 23 22 19 14 12 13 13 4 354 360 149 173 149 132 147 163 177 176 160 154 150 139 135 144 143 49
79 78 74 70 66 65 64 55 42 36 34 34 37 39 40 40 40 40 40 38 35 32 32 35 36 34 33 35 34 30 29 27 25 25 25 25 26 25 25 26 26 26 24 20 16 15 18 21 25 26 26 27 25 20 15 12 11 12 14 12 7 2 4 9 15 16 8 352 312 148 118 102 103 121 119 87 111 129 129 134 140 134 133 146 135
75 73 72 72 69 65 64 62 58 50 40 34 33 34 36 38 37 36 37 38 34 31 30 33 37 36 35 34 33 32 31 28 27 29 31 35 38 37 38 39 40 39 35 30 24 20 19 19 20 20 20 18 14 10 5 4 6 8 8 7 1 356 3 19 33 42 39 26 156 133 106 91 91 109 92 78 97 117 119 128 156 159 141 149 153
80 74 70 70 71 68 64 62 62 60 55 49 41 35 33 34 32 30 32 36 33 29 28 31 35 37 36 35 34 35 36 37 40 43 43 44 45 45 45 47 46 43 41 37 33 31 31 28 24 23 23 20 19 19 15 11 10 8 12 19 12 2 9 27 46 65 76 89 114 121 111 105 114 125 125 102 118 156 176 165 155 138 131 137 134
93 85 78 73 71 70 66 62 60 59 57 56 54 48 42 38 34 29 27 30 32 28 26 29 32 33 35 37 36 36 39 44 50 54 50 44 42 44 46 47 45 43 41 38 35 34 35 32 30 33 33 29 29 31 28 21 13 8 11 16 7 360 7 23 30 58 111 129 129 127 180 192 162 161 175 172 149 153 162 149 129 120 126 135 132
98 96 92 84 77 74 70 65 62 60 57 56 57 56 50 46 45 39 30 28 30 26 24 28 30 30 31 33 34 34 39 47 53 54 48 45 47 45 39 34 31 28 28 29 29 28 27 25 24 23 23 21 20 19 20 26 27 21 16 9 4 11 22 27 27 36 111 168 158 144 139 130 128 141 158 155 141 125 104 96 110 116 114 123 129
84 85 83 79 77 75 73 69 65 61 59 56 55 56 54 49 48 48 45 43 40 33 28 28 29 28 27 27 28 31 36 45 52 48 40 41 50 49 41 35 32 28 28 30 28 22 21 25 26 21 14 11 8 2 360 6 18 26 28 19 4 6 14 14 40 61 64 75 118 113 99 93 91 87 92 108 125 129 121 115 118 123 127 129 135
82 76 72 72 74 73 71 69 65 62 62 61 56 56 57 53 49 50 51 50 46 38 32 30 30 29 26 22 22 26 32 37 45 48 43 39 40 42 41 40 38 33 31 31 28 19 15 19 25 24 18 11 4 360 355 351 352 357 10 14 350 341 6 36 80 92 70 44 97 101 80 74 103 112 102 109 123 149 172 168 135 126 130 128 125
103 93 83 75 71 69 68 68 63 56 57 61 61 58 57 57 54 51 48 48 45 33 25 27 30 32 32 27 27 33 36 33 33 40 46 44 39 35 34 36 34 31 29 28 25 19 13 6 5 12 16 11 6 2 357 357 359 352 343 340 326 301 304 351 103 107 75 51 101 103 72 85 125 125 146 189 226 226 192 185 168 145 137 127 115
114 109 102 92 81 72 69 71 70 65 58 56 58 61 59 56 56 52 46 48 46 30 17 22 29 31 35 44 47 45 42 33 26 27 35 41 39 34 30 30 30 27 24 24 22 19 13 5 359 1 4 1 357 358 358 4 14 15 14 15 14 7 11 45 93 97 74 53 63 71 78 108 113 105 129 179 239 280 140 141 157 167 159 154 143
103 100 95 90 84 77 71 70 73 75 69 58 55 58 56 53 54 53 47 47 46 35 26 26 27 27 30 42 52 47 39 29 24 24 27 30 32 29 26 27 28 23 17 14 13 16 17 11 0 353 353 355 358 4 10 13 18 27 33 32 26 26 33 39 48 54 44 28 25 42 81 113 124 136 141 127 105 91 105 112 134 183 188 188 176
83 83 83 82 79 73 70 72 73 72 70 67 61 57 54 52 52 51 47 46 44 39 34 26 21 24 30 36 41 42 38 29 23 22 21 21 23 25 22 17 16 19 16 7 359 5 17 14 359 345 345 356 8 19 24 23 22 28 30 25 17 15 23 21 23 44 79 87 98 141 137 122 114 152 168 152 137 143 151 164 191 201 202 202 184
74 78 82 84 84 78 70 68 67 63 62 66 65 58 55 52 44 40 44 46 40 36 35 26 15 19 26 31 34 37 37 29 22 20 19 16 17 23 21 10 7 16 18 2 350 353 10 21 4 346 340 345 359 20 26 23 23 31 29 21 18 19 350 314 342 128 164 163 136 140 143 124 106 136 171 161 144 146 149 142 140 129 96 87 141
91 85 81 80 85 90 79 67 67 65 59 59 63 60 55 52 45 40 43 45 39 35 34 29 19 13 14 19 26 31 30 24 19 17 17 14 14 20 19 8 7 17 16 355 347 353 4 18 4 348 346 352 356 355 358 2 15 34 32 19 28 44 22 325 281 229 211 206 186 156 156 139 128 200 187 114 90 96 107 106 109 107 104 106 88
101 99 101 91 81 83 79 64 60 60 57 60 63 57 46 38 36 36 34 32 31 31 29 24 19 11 6 7 13 16 17 16 12 9 11 13 14 15 9 0 4 13 3 344 349 3 10 6 353 349 356 2 354 347 349 348 331 352 17 356 349 93 40 315 228 190 231 230 198 184 189 157 98 249 178 121 112 183 178 154 138 77 90 114 102
103 97 102 95 75 80 100 82 57 46 46 51 53 47 37 31 27 26 23 19 19 23 24 17 10 4 1 360 359 359 3 7 2 1 5 5 3 7 3 353 356 3 351 340 350 8 17 13 4 0 1 359 348 342 349 344 315 274 261 283 271 243 247 252 228 203 220 219 122 125 146 138 98 104 202 179 186 214 199 182 181 181 146 135 167
135 113 112 116 81 75 94 90 60 41 36 42 40 32 28 26 21 19 18 13 11 14 13 5 1 2 5 4 358 357 1 2 354 355 358 354 352 359 355 341 346 1 356 342 345 359 12 16 15 11 7 5 3 350 324 318 325 321 299 270 257 251 253 257 254 238 221 200 165 136 141 150 148 184 188 188 196 207 207 206 198 188 176 174 198
146 114 95 112 85 65 60 55 47 44 43 39 35 28 21 17 11 8 8 4 6 10 6 358 360 6 10 8 3 1 1 358 353 352 352 347 348 353 346 337 346 359 353 338 340 348 358 5 11 12 11 11 11 5 350 332 336 333 314 279 257 258 266 274 274 254 226 208 198 186 178 196 214 205 173 177 198 204 209 214 204 185 184 209 235
136 108 95 112 81 69 71 32 33 45 53 29 17 14 12 8 2 360 360 358 360 3 1 358 4 9 6 4 5 5 2 359 355 352 350 348 346 346 342 340 341 340 334 337 342 341 340 347 358 6 9 10 12 11 7 356 323 312 314 314 303 285 281 285 284 256 222 213 212 208 197 206 215 202 184 194 211 202 208 231 234 213 197 201 240
155 113 121 154 101 75 84 30 19 28 32 11 2 357 359 1 358 356 357 356 353 354 355 357 0 1 358 359 1 0 357 358 359 355 352 350 344 338 337 337 333 331 336 344 340 332 330 334 344 356 3 6 6 7 6 359 343 332 330 329 326 316 306 301 297 276 236 221 221 226 229 229 223 204 197 209 217 199 179 204 251 253 211 189 185
177 144 123 142 110 74 54 335 350 360 346 338 339 337 340 346 346 346 350 350 346 347 350 351 352 355 356 356 356 354 353 354 355 352 349 346 340 333 332 332 331 333 337 334 326 325 328 329 332 340 352 359 360 0 2 0 354 347 339 331 327 326 323 317 307 296 276 248 234 232 234 234 230 220 214 222 229 221 203 189 179 176 185 186 192
181 180 176 196 211 29 313 311 327 335 330 332 336 332 330 333 336 339 342 342 339 341 343 343 343 346 348 350 354 355 352 348 345 343 344 343 341 338 337 334 328 325 322 319 321 327 328 324 323 327 334 342 349 355 1 3 359 351 342 335 329 325 323 320 313 303 293 275 254 241 236 237 238 233 225 224 232 235 228 218 205 190 184 191 209
230 195 179 205 255 254 264 293 305 304 312 326 332 325 321 322 322 323 326 329 332 334 335 337 339 337 334 337 343 345 344 342 341 340 341 340 336 334 334 332 325 318 315 314 314 316 317 318 319 321 323 328 334 345 358 2 358 351 343 337 331 326 323 321 316 308 300 288 270 252 240 238 243 241 229 222 228 233 229 229 230 223 211 203 203